Overview Statistics Trail Chart Weather Telemetry Raw packets
 

This is the latest recevied weather packets stored in our database for station/object K6GMW. If no packets are shown the sender has not sent any weather packets the latest 10 day(s).

<< 105 106 107 108 109 110 111 >>
Time Temp. Humidity Pressure Rain* Wind** Luminosity Snow
1787835286 23.33° C 92% 1016.7 hPa 0 mm - 83 W/m² -
1787834981 23.33° C 93% 1016.6 hPa 0 mm - 78 W/m² -
1787834679 23.33° C 93% 1016.8 hPa 0 mm - 67 W/m² -
1787834375 23.33° C 93% 1016.8 hPa 0 mm - 60 W/m² -
1787834071 22.78° C 93% 1016.8 hPa 0 mm - 54 W/m² -
1787833766 22.78° C 93% 1016.7 hPa 0 mm - 46 W/m² -
1787833461 22.78° C 93% 1016.6 hPa 0 mm - 37 W/m² -
1787833156 22.78° C 92% 1016.7 hPa 0 mm - 30 W/m² -
1787832852 22.78° C 92% 1016.5 hPa 0 mm - 25 W/m² -
1787832548 22.78° C 92% 1016.3 hPa 0 mm - 20 W/m² -
1787832246 22.78° C 92% 1016.4 hPa 0 mm - 14 W/m² -
1787831944 22.78° C 92% 1016.2 hPa 0 mm - 8 W/m² -
1787831640 22.78° C 92% 1015.9 hPa 0 mm - 5 W/m² -
1787831338 22.78° C 91% 1015.7 hPa 0 mm - 2 W/m² -
1787831036 22.78° C 91% 1015.7 hPa 0 mm - 1 W/m² -
1787830735 22.78° C 91% 1015.8 hPa 0 mm - 0 W/m² -
1787830434 23.33° C 91% 1015.6 hPa 0 mm - 0 W/m² -
1787830133 23.33° C 91% 1015.7 hPa 0 mm - 0 W/m² -
1787829834 23.33° C 90% 1015.4 hPa 0 mm - 0 W/m² -
1787829533 23.33° C 90% 1015.4 hPa 0 mm - 0 W/m² -
1787829229 23.33° C 89% 1015.5 hPa 0 mm - 0 W/m² -
1787828929 23.33° C 89% 1015.6 hPa 0 mm - 0 W/m² -
1787828626 23.33° C 89% 1015.7 hPa 0 mm - 0 W/m² -
1787828321 23.33° C 89% 1015.5 hPa 0 mm - 0 W/m² -
1787828020 23.33° C 88% 1015.4 hPa 0 mm - 0 W/m² -

* Rain latest hour (hover to see other rain measurements)
** Current wind speed in m/s (hover to see current wind gust speed)